Погода в Омельнике

Украина / Запорожская область     47°38′18″N   35°53′09″E
темп.,
°C
ветер,
м/с
пор.,
м/с
влажн.,
%
обл.,
%
осадки,
мм/ч
давл.,
гПа
погр.,
м
22 апреля, чт
чт2200:00+8ююз48925 0.0 1019177
03:00+7юз37935 0.0 1020130
06:00+6юз34935 0.0 102183
09:00+12ююз34684 0.0 1022520
12:00+15ююз435326 0.4 10221506
15:00+17зюз3344100 0.9 10212120
18:00+13ююз4663100 0.6 1021143
21:00+11ююз497697 0.8 1022313
23 апреля, пт
пт2300:00+10ююз498336 0.0 1022260
03:00+7юз36902 0.0 1022127
06:00+7ююз369119 0.0 1022124
09:00+13ююз57635 0.0 1021607
12:00+16ююз784715 0.0 10201733
15:00+17ююз884297 0.0 10182263
18:00+15ю785149 0.0 10171303
21:00+11ю61271100 0.0 1017468
24 апреля, сб
сб2400:00+10ю51081100 0.5 1016285
03:00+9юз51088100 0.7 1015549
06:00+7сз5887100 1.1 1017623
09:00+9зсз57665 1.1 10171046
12:00+12з7104160 0.0 10172404
15:00+13зюз101238100 0.0 10172459
18:00+10зсз913525 0.1 10191933
21:00+5сз38590 0.1 1021243
25 апреля, вс
вс2500:00+4з34580 0.0 102263
03:00+3з36610 0.0 1022102
06:00+2зсз35713 0.0 1023112
09:00+8зсз35480 0.0 10221128
12:00+11зсз44355 0.0 10221887
15:00+12зсз333297 0.0 10202043
18:00+12зюз2236100 0.0 10201849
21:00+7юз3452100 0.0 102045
26 апреля, пн
пн2600:00+5ююз36622 0.0 1020106
03:00+5юз3669100 0.0 1019111
06:00+4юз3480100 0.0 101888
09:00+10юз575878 0.0 1018807
12:00+7зсз7883100 0.1 1018868
15:00+10зсз575890 0.2 10181607
18:00+11зсз574072 0.0 10162280
21:00+8зюз345521 0.0 101882